COSMOS 2334

Satellite information

Favourite Embed

Satellite Type and Status

PAYLOADIN ORBIT

Key statistics

Satellite COSMOS 2334 at a glance.

Uptime

10635

Days in orbit

Revolutions

≈ 13.7

Per day

Orbit

LEO

Low Earth Orbit

Inclination

82.9

Latest

Satellite identification and parameters

Extended collection of information and parameters for COSMOS 2334.

Object identification

Identified? True

Debris? False

Object name: COSMOS 2334

International designator: 1996-052A

Object number (NORAD): 24304

Object ID (CCSDS): 24304

Country: COMMONWEALTH OF INDEPENDENT STATES (CIS)

Current information (Y/N): Y

RCS size: LARGE

Orbital parameters

Period: 104.82 minutes

Inclination: 82.931 deg

SMA: 7364.15 km

Apoapsis: 1007.314 km

Periapsis: 964.717 km

RAAN: 260.017 deg

Eccentricy: 0.0028922

Argument of periapsis: 214.065 deg

Mean anomaly: 200.1507 deg

Mean motion: 13.73785113 rev/day

Mean motion (dot): 0.00000075 rev/day2

B* drag term: 0.000064405326 1/REarth

Two-line elements (TLE)

Creation date: Oct. 18, 2025, 2:17 a.m.

Reference frame: TEME

Reference center: EARTH

Epoch: Oct. 17, 2025, 10:53 p.m. UTC

TLE line 0: 0 COSMOS 2334

TLE line 1: 1 24304U 96052A 25290.95397403 .00000075 00000-0 64405-4 0 9998

TLE line 2: 2 24304 82.9310 260.0170 0028922 214.0650 200.1507 13.73785113459377

Live tracking on map

Real-time ground track for satellite COSMOS 2334.

In-orbit conjunctions

A list of the most updated potential collisions computed for object COSMOS 2334.

Target Orbit TCA Probability of collision Miss distance Type
CZ-6A DEB LEO 2025-03-15 12:01:05 0.0001862614 741.0 (m) DEBRIS
COSMOS 1275 DEB LEO 2024-10-31 06:55:12 0.0001748466 460.0 (m) DEBRIS
COSMOS 1275 DEB LEO 2024-09-25 22:42:50 0.000147458 273.0 (m) DEBRIS

Associated space launch

Navigation satellite providing location information for the Tsiklon-B navigation system

COSMOS 2334 was lifted into orbit during the mission ‘Kosmos-3M | Parus 86’, on board a Kosmos-3M space rocket.

The launch took place on Sept. 5, 1996, 12:47 p.m. from 132/1 (132L).

For more information about the launch, click the button.

Launch to space Kosmos-3M | Parus 86
Kosmos-3M | Parus 86

Agency: N/A

Status: Launch Successful

Launch date: Sept. 5, 1996, 12:47 p.m. UTC

Rocket: Kosmos-3M

Launch pad: 132/1 (132L)

Location: Plesetsk Cosmodrome, Russian Federation

...

Latest news about this satellite

There are no fresh news available about this satellite. Check back as we update our databases every day.


Newsletter sign-up

Weekly statistics, charts and insights to help you stay on top of the space industry.